Regional Weather Roundup
Issued by NWS Albany, NY

Home | Current Version | Previous Version | Text Only | Print | Product List | Glossary On
Versions: 1 2 3 4 5 6 7 8 9 10 11 12 13 14 15 16 17 18 19 20 21 22 23 24 25 26 27
000
ASUS41 KALY 221210
RWRALY

NEW YORK STATE HOURLY WEATHER ROUNDUP
NATIONAL WEATHER SERVICE ALBANY NY
800 AM EDT TUE APR 22 2014

NOTE: "FAIR" INDICATES FEW OR NO CLOUDS BELOW 12,000 FEET WITH NO
SIGNIFICANT WEATHER AND/OR NO OBSTRUCTIONS TO VISIBILITY.

NYZ032-033-038>043-046>054-057>066-NYZ062>081-221300-
EAST


CITY           SKY/WX    TMP DP  RH WIND       PRES   REMARKS
ALBANY         CLOUDY    54  36  50 S13       29.67F
GLENS FALLS    CLOUDY    58  35  42 SW8       29.65F
POUGHKEEPSIE   CLOUDY    51  42  71 SE5       29.70F
NEWBURGH       MOSUNNY   52  41  66 CALM      29.72F
MONTGOMERY     PTSUNNY   51  40  65 SW6       29.71F
WHITE PLAINS   PTSUNNY   51  45  79 CALM      29.73F
ISLIP          PTSUNNY   51  45  79 SW8       29.75F
NEW YORK CITY  PTSUNNY   53  44  71 SW9       29.75F
CENTRAL PARK   MOSUNNY   54  45  71 VRB5      29.77F
$$

NYZ005>009-017-018-044>046-055-056-221300-
CENTRAL


CITY           SKY/WX    TMP DP  RH WIND       PRES   REMARKS
FULTON         CLOUDY    57  46  66 CALM      29.58F
SYRACUSE       LGT RAIN  61  40  45 S9        29.60F
ROME           CLOUDY    57  32  38 SE6       29.63F
ELMIRA         CLOUDY    55  42  61 CALM      29.65F
BINGHAMTON     CLOUDY    56  30  37 SW7       29.66S
MONTICELLO     PTSUNNY   48  30  49 S3        29.72S
$$

NYZ026>034-041>043-221300-
NORTH


CITY           SKY/WX    TMP DP  RH WIND       PRES   REMARKS
WATERTOWN      LGT RAIN  55  40  56 SW9       29.58R
FORT DRUM      NOT AVBL
MASSENA        CLOUDY    51  46  83 CALM      29.57F
SARANAC LAKE   CLOUDY    49  41  74 CALM      29.58F
PLATTSBURGH    CLOUDY    50  43  77 CALM      29.58F
$$

NYZ001>004-010>016-019>021-221300-
WEST


CITY           SKY/WX    TMP DP  RH WIND       PRES   REMARKS
NIAGARA FALLS  LGT RAIN  47  45  93 S12       29.58F FOG
BUFFALO        RAIN      46  44  93 SW8       29.60F FOG
DUNKIRK        LGT RAIN  52  51  97 SW10      29.62F FOG
JAMESTOWN      CLOUDY    54  52  94 SW7       29.65F
WELLSVILLE     LGT RAIN  56  46  69 VRB6      29.67F
ROCHESTER      LGT RAIN  58  50  75 W7        29.59F
PENN YAN       CLOUDY    57  44  62 SW10      29.63S
$$

             KEY
       WCI = WIND CHILL INDEX
       VSB = VISIBILITY
       HX  = HEAT INDEX
$$



USA.gov is the U.S. government's official web portal to all federal, state and local government web resources and services.